MOZHAYETS 4 (RS-22)

Last updated on Tue Jul 08 2025 00:03:06 GMT+0000 (Coordinated Universal Time)

1 27939U 03042A 25188.60360281 .00000781 00000+0 13157-3 0 9994 2 27939 98.3299 358.7355 0010148 282.6653 152.2394 14.72406054164824
UTC large
Height (km)
Speed (km/s)
/
Latitude / Longitude
Inclination (degrees)
Orbital Period (minutes)
Azimuth
Elevation
Range (km)
Doppler Factor

Next 0 passes for location: London (51.5072 / 0.1276)

Sorry there are no passes over London.